小惑星2010 WZ71

2010 WZ71

English version
Home page
Updated on December 7, 2011

---------------------------------------------------------------------

・ プロフィール

・ 写真集

・ 軌道要素

The following orbital elements are taken from MPEC 2011-X12:

Epoch 2011 Aug. 27.0 TT = JDT 2455800.5                 MPC
M   0.66758              (2000.0)            P               Q
n   0.07237330     Peri.  268.23014     -0.58176739     -0.78289246
a   5.7027427      Node   220.13292     +0.81310482     -0.56653265
e   0.5242918      Incl.   20.00565     -0.02018028     -0.25713840
P  13.6            H   14.3           G   0.15           U   2
From 37 observations at 3 oppositions, 2009-2011, mean residual 0".51.

・ 光度変化

        H = 14.2  G = 0.15

---------------------------------------------------------------------

軌道要素はMPCのEphemerides and Orbital Elementsに掲載されたものです。
光度グラフはComet for Windowsで作成したものです。

---------------------------------------------------------------------

Copyright(C) Seiichi Yoshida (comet@aerith.net). All rights reserved.